Hourly Weather Kisszállás

Today, 30 July, Friday

Time Temperature Precipitation Wind Pressure Humidity
00:00 +24°C° 0 mm 2 mps 748 mmHg 44%
01:00 +23°C° 0 mm 2 mps 747 mmHg 46%
02:00 +23°C° 0 mm 2 mps 747 mmHg 48%
03:00 +23°C° 0 mm 2 mps 747 mmHg 49%
04:00 +21°C° 0 mm 2 mps 747 mmHg 51%
05:00 +24°C° 0 mm 2 mps 747 mmHg 47%
06:00 +26°C° 0 mm 2 mps 748 mmHg 43%
07:00 +28°C° 0 mm 2 mps 748 mmHg 39%
08:00 +30°C° 0 mm 2 mps 747 mmHg 35%
09:00 +32°C° 0 mm 2 mps 747 mmHg 31%
10:00 +35°C° 0 mm 3 mps 747 mmHg 26%
11:00 +36°C° 0 mm 3 mps 747 mmHg 25%
12:00 +37°C° 0 mm 3 mps 746 mmHg 24%
13:00 +38°C° 0 mm 3 mps 746 mmHg 22%
14:00 +38°C° 0 mm 3 mps 745 mmHg 22%
15:00 +38°C° 0 mm 3 mps 745 mmHg 21%
16:00 +39°C° 0 mm 3 mps 744 mmHg 21%
17:00 +37°C° 0 mm 3 mps 744 mmHg 24%
18:00 +35°C° 0 mm 3 mps 744 mmHg 27%
19:00 +32°C° 0 mm 2 mps 744 mmHg 30%
20:00 +31°C° 0 mm 2 mps 744 mmHg 31%
21:00 +30°C° 0 mm 2 mps 744 mmHg 33%
22:00 +29°C° 0 mm 2 mps 744 mmHg 34%
23:00 +28°C° 0 mm 2 mps 744 mmHg 37%

Tomorrow, 31 July, Saturday

Time Temperature Precipitation Wind Pressure Humidity
00:00 +27°C° 0 mm 2 mps 744 mmHg 40%
01:00 +26°C° 0 mm 2 mps 744 mmHg 42%
02:00 +25°C° 0 mm 2 mps 744 mmHg 44%
03:00 +25°C° 0 mm 3 mps 744 mmHg 46%
04:00 +24°C° 0 mm 3 mps 744 mmHg 49%
05:00 +26°C° 0 mm 3 mps 744 mmHg 46%
06:00 +28°C° 0 mm 3 mps 744 mmHg 44%
07:00 +29°C° 0 mm 3 mps 744 mmHg 42%
08:00 +31°C° 0 mm 3 mps 744 mmHg 37%
09:00 +35°C° 0 mm 3 mps 744 mmHg 32%
10:00 +37°C° 0 mm 4 mps 744 mmHg 27%
11:00 +38°C° 0 mm 4 mps 744 mmHg 25%
12:00 +40°C° 0 mm 4 mps 744 mmHg 23%
13:00 +41°C° 0 mm 5 mps 743 mmHg 21%
14:00 +41°C° 0 mm 5 mps 743 mmHg 21%
15:00 +41°C° 0 mm 5 mps 743 mmHg 22%
16:00 +40°C° 0 mm 6 mps 743 mmHg 22%
17:00 +38°C° 0 mm 6 mps 743 mmHg 29%
18:00 +34°C° 0 mm 6 mps 744 mmHg 36%
19:00 +30°C° 0 mm 7 mps 744 mmHg 42%
20:00 +29°C° 0.1 mm 5 mps 744 mmHg 48%
21:00 +27°C° 0.1 mm 3 mps 745 mmHg 54%
22:00 +25°C° 0.1 mm 1 mps 745 mmHg 61%
23:00 +24°C° 0 mm 2 mps 745 mmHg 63%

Day after tomorrow, 1 August, Sunday

Time Temperature Precipitation Wind Pressure Humidity
00:00 +23°C° 0 mm 2 mps 745 mmHg 65%
01:00 +22°C° 0 mm 3 mps 745 mmHg 68%
02:00 +21°C° 0 mm 3 mps 745 mmHg 70%
03:00 +21°C° 0 mm 2 mps 745 mmHg 72%
04:00 +20°C° 0 mm 2 mps 744 mmHg 74%
05:00 +22°C° 0 mm 3 mps 744 mmHg 67%
06:00 +25°C° 0 mm 3 mps 744 mmHg 60%
07:00 +28°C° 0 mm 4 mps 744 mmHg 53%
08:00 +30°C° 0 mm 4 mps 744 mmHg 45%
09:00 +33°C° 0 mm 5 mps 744 mmHg 38%
10:00 +36°C° 0 mm 5 mps 744 mmHg 31%
11:00 +38°C° 0 mm 6 mps 743 mmHg 27%
12:00 +39°C° 0 mm 6 mps 743 mmHg 23%
13:00 +41°C° 0 mm 7 mps 742 mmHg 19%
14:00 +39°C° 0.1 mm 8 mps 742 mmHg 23%
15:00 +38°C° 0.1 mm 8 mps 742 mmHg 26%
16:00 +35°C° 0.1 mm 9 mps 742 mmHg 29%
17:00 +33°C° 0 mm 7 mps 742 mmHg 33%
18:00 +32°C° 0 mm 5 mps 742 mmHg 37%
19:00 +29°C° 0 mm 4 mps 741 mmHg 42%
20:00 +26°C° 0.3 mm 4 mps 742 mmHg 55%
21:00 +22°C° 0.3 mm 5 mps 743 mmHg 69%
22:00 +19°C° 0.3 mm 6 mps 745 mmHg 83%
23:00 +19°C° 0.1 mm 5 mps 745 mmHg 84%

2 August, Monday

Time Temperature Precipitation Wind Pressure Humidity
00:00 +17°C° 0.1 mm 5 mps 745 mmHg 86%
01:00 +16°C° 0.1 mm 5 mps 745 mmHg 87%
02:00 +16°C° 0 mm 5 mps 745 mmHg 86%
03:00 +16°C° 0 mm 5 mps 746 mmHg 85%
04:00 +15°C° 0 mm 5 mps 746 mmHg 84%
05:00 +16°C° 0 mm 5 mps 746 mmHg 77%
06:00 +19°C° 0 mm 5 mps 747 mmHg 69%
07:00 +20°C° 0 mm 6 mps 747 mmHg 62%
08:00 +22°C° 0 mm 5 mps 747 mmHg 53%
09:00 +26°C° 0 mm 5 mps 748 mmHg 43%
10:00 +28°C° 0 mm 5 mps 748 mmHg 34%
11:00 +29°C° 0 mm 4 mps 748 mmHg 32%
12:00 +30°C° 0 mm 4 mps 747 mmHg 30%
13:00 +31°C° 0 mm 3 mps 747 mmHg 27%
14:00 +33°C° 0 mm 3 mps 747 mmHg 27%
15:00 +33°C° 0 mm 3 mps 747 mmHg 26%
16:00 +33°C° 0 mm 3 mps 746 mmHg 26%
17:00 +31°C° 0 mm 3 mps 747 mmHg 29%
18:00 +29°C° 0 mm 3 mps 747 mmHg 32%
19:00 +27°C° 0 mm 3 mps 747 mmHg 35%
20:00 +26°C° 0 mm 3 mps 747 mmHg 38%
21:00 +24°C° 0 mm 3 mps 748 mmHg 41%
22:00 +22°C° 0 mm 3 mps 748 mmHg 45%
23:00 +21°C° 0 mm 3 mps 748 mmHg 46%

3 August, Tuesday

Time Temperature Precipitation Wind Pressure Humidity
00:00 +21°C° 0 mm 3 mps 748 mmHg 48%
01:00 +20°C° 0 mm 3 mps 749 mmHg 50%
02:00 +20°C° 0 mm 2 mps 749 mmHg 49%
03:00 +21°C° 0 mm 2 mps 749 mmHg 49%
04:00 +21°C° 0 mm 2 mps 749 mmHg 48%
05:00 +23°C° 0 mm 2 mps 750 mmHg 46%
06:00 +24°C° 0 mm 2 mps 750 mmHg 43%
07:00 +25°C° 0 mm 2 mps 750 mmHg 41%
08:00 +27°C° 0 mm 1 mps 750 mmHg 36%
09:00 +29°C° 0 mm 1 mps 750 mmHg 32%
10:00 +31°C° 0 mm 1 mps 750 mmHg 28%
11:00 +32°C° 0 mm 1 mps 750 mmHg 26%
12:00 +34°C° 0 mm 2 mps 749 mmHg 25%
13:00 +35°C° 0 mm 2 mps 749 mmHg 23%
14:00 +35°C° 0 mm 2 mps 748 mmHg 22%
15:00 +35°C° 0 mm 3 mps 748 mmHg 21%
16:00 +36°C° 0 mm 3 mps 747 mmHg 21%
17:00 +34°C° 0 mm 3 mps 747 mmHg 24%
18:00 +31°C° 0 mm 3 mps 746 mmHg 27%
19:00 +29°C° 0 mm 3 mps 746 mmHg 30%
20:00 +28°C° 0 mm 3 mps 746 mmHg 35%
21:00 +26°C° 0 mm 3 mps 746 mmHg 40%
22:00 +25°C° 0 mm 3 mps 746 mmHg 46%
23:00 +24°C° 0.1 mm 3 mps 746 mmHg 47%

4 August, Wednesday

Time Temperature Precipitation Wind Pressure Humidity
00:00 +24°C° 0.1 mm 3 mps 745 mmHg 49%
01:00 +22°C° 0.1 mm 3 mps 745 mmHg 50%
02:00 +22°C° 0.2 mm 3 mps 745 mmHg 57%
03:00 +21°C° 0.2 mm 3 mps 746 mmHg 64%
04:00 +20°C° 0.2 mm 3 mps 746 mmHg 71%
05:00 +21°C° 0.1 mm 2 mps 746 mmHg 69%
06:00 +23°C° 0.1 mm 2 mps 746 mmHg 68%
07:00 +24°C° 0.1 mm 1 mps 746 mmHg 66%
08:00 +25°C° 0 mm 2 mps 746 mmHg 61%
09:00 +26°C° 0 mm 3 mps 746 mmHg 57%
10:00 +27°C° 0 mm 4 mps 746 mmHg 52%
11:00 +27°C° 0.1 mm 5 mps 746 mmHg 52%
12:00 +27°C° 0.1 mm 5 mps 746 mmHg 53%
13:00 +27°C° 0.1 mm 6 mps 746 mmHg 53%
14:00 +28°C° 0 mm 6 mps 746 mmHg 47%
15:00 +30°C° 0 mm 5 mps 746 mmHg 42%
16:00 +32°C° 0 mm 4 mps 746 mmHg 36%
17:00 +29°C° 0 mm 4 mps 746 mmHg 41%
18:00 +28°C° 0 mm 3 mps 745 mmHg 45%
19:00 +26°C° 0 mm 2 mps 745 mmHg 49%
20:00 +25°C° 0 mm 2 mps 745 mmHg 53%
21:00 +24°C° 0 mm 2 mps 746 mmHg 57%
22:00 +23°C° 0 mm 2 mps 746 mmHg 60%
23:00 +23°C° 0 mm 1 mps 746 mmHg 60%
Show more